Time,TemperatureF,DewpointF,PressureIn,WindDirection,WindDirectionDegrees,WindSpeedMPH,WindSpeedGustMPH,Humidity,HourlyPrecipIn,Conditions,Clouds,dailyrainin,SoftwareType,DateUTC
2013-01-15 00:00:00,29.1,29.1,30.27,ENE,65,0.0,0.0,100,0.00,,,0.00,Wunderground v.1.12,2013-01-15 08:00:00,
2013-01-15 00:10:00,29.0,29.0,30.28,ENE,65,0.0,0.0,100,0.00,,,0.00,Wunderground v.1.12,2013-01-15 08:10:00,
2013-01-15 00:20:00,28.8,28.8,30.29,ENE,65,0.0,0.0,100,0.00,,,0.00,Wunderground v.1.12,2013-01-15 08:20:00,
2013-01-15 00:30:00,28.8,28.8,30.29,ENE,65,0.0,0.0,100,0.00,,,0.00,Wunderground v.1.12,2013-01-15 08:30:00,
2013-01-15 00:40:00,28.7,28.7,30.29,ENE,65,0.0,0.0,100,0.00,,,0.00,Wunderground v.1.12,2013-01-15 08:40:00,
2013-01-15 00:50:00,28.7,28.7,30.29,ENE,65,0.0,0.0,100,0.00,,,0.00,Wunderground v.1.12,2013-01-15 08:50:00,
2013-01-15 01:00:00,28.7,28.7,30.29,ENE,58,0.0,0.0,100,0.00,,,0.00,Wunderground v.1.12,2013-01-15 09:00:00,
2013-01-15 01:10:00,28.7,28.7,30.28,ENE,58,0.0,0.0,100,0.00,,,0.00,Wunderground v.1.12,2013-01-15 09:10:00,
2013-01-15 01:20:00,28.7,28.7,30.29,ENE,58,0.0,0.0,100,0.00,,,0.00,Wunderground v.1.12,2013-01-15 09:20:00,
2013-01-15 01:30:00,28.2,28.2,30.29,ENE,58,0.0,0.0,100,0.00,,,0.00,Wunderground v.1.12,2013-01-15 09:30:00,
2013-01-15 01:40:00,28.1,28.1,30.29,ENE,58,0.0,0.0,100,0.00,,,0.00,Wunderground v.1.12,2013-01-15 09:40:00,
2013-01-15 01:50:00,28.1,28.1,30.30,ENE,58,0.0,0.0,100,0.00,,,0.00,Wunderground v.1.12,2013-01-15 09:50:00,
2013-01-15 02:00:00,27.9,27.9,30.30,ENE,57,0.0,0.0,100,0.00,,,0.00,Wunderground v.1.12,2013-01-15 10:00:00,
2013-01-15 02:10:00,27.8,27.8,30.31,ENE,58,0.0,0.0,100,0.00,,,0.00,Wunderground v.1.12,2013-01-15 10:10:00,
2013-01-15 02:20:00,27.9,27.9,30.31,ENE,58,0.0,0.0,100,0.00,,,0.00,Wunderground v.1.12,2013-01-15 10:20:00,
2013-01-15 02:30:00,28.1,28.1,30.31,ENE,57,0.0,0.0,100,0.00,,,0.00,Wunderground v.1.12,2013-01-15 10:30:00,
2013-01-15 02:40:00,27.8,27.8,30.31,ENE,58,1.0,1.0,100,0.00,,,0.00,Wunderground v.1.12,2013-01-15 10:40:00,
2013-01-15 02:50:00,28.2,28.2,30.31,ENE,57,0.0,0.0,100,0.00,,,0.00,Wunderground v.1.12,2013-01-15 10:50:00,
2013-01-15 03:00:00,28.2,28.2,30.31,ENE,57,0.0,0.0,100,0.00,,,0.00,Wunderground v.1.12,2013-01-15 11:00:00,
2013-01-15 03:10:00,27.8,27.8,30.31,ENE,57,0.0,0.0,100,0.00,,,0.00,Wunderground v.1.12,2013-01-15 11:10:00,
2013-01-15 03:20:00,27.6,27.6,30.31,ENE,57,0.0,0.0,100,0.00,,,0.00,Wunderground v.1.12,2013-01-15 11:20:00,
2013-01-15 03:30:00,27.3,27.3,30.31,ENE,58,0.0,0.0,100,0.00,,,0.00,Wunderground v.1.12,2013-01-15 11:30:00,
2013-01-15 03:40:00,27.2,27.2,30.31,ENE,57,0.0,0.0,100,0.00,,,0.00,Wunderground v.1.12,2013-01-15 11:40:00,
2013-01-15 03:50:00,27.3,27.3,30.31,ENE,57,0.0,0.0,100,0.00,,,0.00,Wunderground v.1.12,2013-01-15 11:50:00,
2013-01-15 04:00:00,27.3,27.3,30.31,ENE,58,0.0,0.0,100,0.00,,,0.00,Wunderground v.1.12,2013-01-15 12:00:00,
2013-01-15 04:10:00,27.0,27.0,30.31,ENE,57,0.0,0.0,100,0.00,,,0.00,Wunderground v.1.12,2013-01-15 12:10:00,
2013-01-15 04:20:00,26.9,26.9,30.31,ENE,58,0.0,0.0,100,0.00,,,0.00,Wunderground v.1.12,2013-01-15 12:20:00,
2013-01-15 04:30:00,26.9,26.9,30.31,ENE,57,0.0,0.0,100,0.00,,,0.00,Wunderground v.1.12,2013-01-15 12:30:00,
2013-01-15 04:40:00,27.0,27.0,30.31,ENE,58,0.0,0.0,100,0.00,,,0.00,Wunderground v.1.12,2013-01-15 12:40:00,
2013-01-15 04:50:00,27.0,27.0,30.31,ENE,57,0.0,0.0,100,0.00,,,0.00,Wunderground v.1.12,2013-01-15 12:50:00,
2013-01-15 05:00:00,27.0,27.0,30.31,ENE,57,0.0,0.0,100,0.00,,,0.00,Wunderground v.1.12,2013-01-15 13:00:00,
2013-01-15 05:10:00,27.2,27.2,30.31,ENE,58,0.0,0.0,100,0.00,,,0.00,Wunderground v.1.12,2013-01-15 13:10:00,
2013-01-15 05:20:00,27.0,27.0,30.32,ENE,57,0.0,0.0,100,0.00,,,0.00,Wunderground v.1.12,2013-01-15 13:20:00,
2013-01-15 05:30:00,27.0,27.0,30.32,ENE,57,0.0,0.0,100,0.00,,,0.00,Wunderground v.1.12,2013-01-15 13:30:00,
2013-01-15 05:40:00,26.9,26.9,30.32,ENE,58,0.0,0.0,100,0.00,,,0.00,Wunderground v.1.12,2013-01-15 13:40:00,
2013-01-15 05:50:00,26.9,26.9,30.32,ENE,57,0.0,0.0,100,0.00,,,0.00,Wunderground v.1.12,2013-01-15 13:50:00,
2013-01-15 06:00:00,26.7,26.7,30.32,ENE,58,0.0,0.0,100,0.00,,,0.00,Wunderground v.1.12,2013-01-15 14:00:00,
2013-01-15 06:10:00,26.4,26.4,30.32,ENE,57,0.0,0.0,100,0.00,,,0.00,Wunderground v.1.12,2013-01-15 14:10:00,
2013-01-15 06:20:00,26.3,26.3,30.32,ENE,58,0.0,0.0,100,0.00,,,0.00,Wunderground v.1.12,2013-01-15 14:20:00,
2013-01-15 06:30:00,26.7,26.7,30.32,ENE,58,0.0,0.0,100,0.00,,,0.00,Wunderground v.1.12,2013-01-15 14:30:00,
2013-01-15 06:40:00,26.7,26.7,30.33,ENE,58,0.0,0.0,100,0.00,,,0.00,Wunderground v.1.12,2013-01-15 14:40:00,
2013-01-15 06:50:00,26.9,26.9,30.33,ENE,57,0.0,0.0,100,0.00,,,0.00,Wunderground v.1.12,2013-01-15 14:50:00,
2013-01-15 07:00:00,26.9,26.9,30.33,ENE,57,0.0,0.0,100,0.00,,,0.00,Wunderground v.1.12,2013-01-15 15:00:00,
2013-01-15 07:10:00,26.7,26.7,30.34,ENE,57,0.0,0.0,100,0.00,,,0.00,Wunderground v.1.12,2013-01-15 15:10:00,
2013-01-15 07:20:00,26.7,26.7,30.35,ENE,57,0.0,0.0,100,0.00,,,0.00,Wunderground v.1.12,2013-01-15 15:20:00,
2013-01-15 07:30:00,26.7,26.7,30.35,ENE,57,0.0,0.0,100,0.00,,,0.00,Wunderground v.1.12,2013-01-15 15:30:00,
2013-01-15 07:40:00,26.4,26.4,30.35,ENE,58,0.0,0.0,100,0.00,,,0.00,Wunderground v.1.12,2013-01-15 15:40:00,
2013-01-15 07:50:00,26.6,26.6,30.36,ENE,58,0.0,0.0,100,0.00,,,0.00,Wunderground v.1.12,2013-01-15 15:50:00,
2013-01-15 08:00:00,26.4,26.4,30.36,ENE,57,0.0,0.0,100,0.00,,,0.00,Wunderground v.1.12,2013-01-15 16:00:00,
2013-01-15 08:10:00,26.9,26.9,30.36,ENE,57,0.0,0.0,100,0.00,,,0.00,Wunderground v.1.12,2013-01-15 16:10:00,
2013-01-15 08:20:00,27.5,27.5,30.37,ENE,57,0.0,0.0,100,0.00,,,0.00,Wunderground v.1.12,2013-01-15 16:20:00,
2013-01-15 08:30:00,29.1,29.1,30.37,ENE,57,0.0,0.0,100,0.00,,,0.00,Wunderground v.1.12,2013-01-15 16:30:00,
2013-01-15 08:40:00,30.7,30.7,30.37,ENE,57,0.0,0.0,100,0.00,,,0.01,Wunderground v.1.12,2013-01-15 16:40:00,
2013-01-15 08:50:00,31.3,31.3,30.37,ENE,57,0.0,0.0,100,0.00,,,0.01,Wunderground v.1.12,2013-01-15 16:50:00,
2013-01-15 09:00:00,31.9,31.9,30.37,ENE,57,0.0,0.0,100,0.00,,,0.01,Wunderground v.1.12,2013-01-15 17:00:00,
2013-01-15 09:10:00,32.7,32.7,30.38,ENE,58,0.0,0.0,100,0.00,,,0.01,Wunderground v.1.12,2013-01-15 17:10:00,
2013-01-15 09:20:00,33.5,33.5,30.38,ENE,57,0.0,0.0,100,0.00,,,0.01,Wunderground v.1.12,2013-01-15 17:20:00,
2013-01-15 09:30:00,34.7,34.7,30.38,ENE,58,0.0,0.0,100,0.00,,,0.01,Wunderground v.1.12,2013-01-15 17:30:00,
2013-01-15 09:40:00,36.3,36.3,30.38,ENE,57,0.0,0.0,100,0.00,,,0.01,Wunderground v.1.12,2013-01-15 17:40:00,
2013-01-15 09:50:00,38.2,38.2,30.38,ENE,57,0.0,0.0,100,0.00,,,0.01,Wunderground v.1.12,2013-01-15 17:50:00,
2013-01-15 10:00:00,40.1,40.1,30.38,ENE,57,0.0,0.0,100,0.00,,,0.01,Wunderground v.1.12,2013-01-15 18:00:00,
2013-01-15 10:10:00,40.9,40.9,30.38,ENE,57,0.0,0.0,100,0.00,,,0.01,Wunderground v.1.12,2013-01-15 18:10:00,
2013-01-15 10:20:00,42.1,42.1,30.38,ENE,57,0.0,0.0,100,0.00,,,0.01,Wunderground v.1.12,2013-01-15 18:20:00,
2013-01-15 10:30:00,42.6,42.6,30.38,ENE,58,0.0,0.0,100,0.00,,,0.01,Wunderground v.1.12,2013-01-15 18:30:00,
2013-01-15 10:40:00,44.1,44.1,30.37,ENE,57,0.0,0.0,100,0.00,,,0.01,Wunderground v.1.12,2013-01-15 18:40:00,
2013-01-15 10:50:00,45.2,45.2,30.37,NE,43,0.0,1.0,100,0.00,,,0.01,Wunderground v.1.12,2013-01-15 18:50:00,
2013-01-15 11:00:00,46.1,46.1,30.37,NE,50,1.0,1.0,100,0.00,,,0.01,Wunderground v.1.12,2013-01-15 19:00:00,
2013-01-15 11:10:00,47.4,47.4,30.36,ENE,60,0.0,1.0,100,0.00,,,0.01,Wunderground v.1.12,2013-01-15 19:10:00,
2013-01-15 11:20:00,49.4,49.4,30.36,ENE,78,0.0,0.0,100,0.00,,,0.01,Wunderground v.1.12,2013-01-15 19:20:00,
2013-01-15 11:30:00,50.5,50.5,30.36,ENE,78,0.0,0.0,100,0.00,,,0.01,Wunderground v.1.12,2013-01-15 19:30:00,
2013-01-15 11:40:00,51.7,51.7,30.36,ESE,113,0.0,0.0,100,0.00,,,0.01,Wunderground v.1.12,2013-01-15 19:40:00,
2013-01-15 11:50:00,52.8,52.8,30.35,South,181,1.0,1.0,100,0.00,,,0.01,Wunderground v.1.12,2013-01-15 19:50:00,
2013-01-15 12:00:00,53.8,53.8,30.35,South,173,1.0,1.0,100,0.00,,,0.01,Wunderground v.1.12,2013-01-15 20:00:00,
2013-01-15 12:10:00,53.9,53.9,30.34,ESE,113,1.0,2.0,100,0.00,,,0.01,Wunderground v.1.12,2013-01-15 20:10:00,
2013-01-15 12:20:00,53.3,53.3,30.34,ESE,119,3.0,3.0,100,0.00,,,0.01,Wunderground v.1.12,2013-01-15 20:20:00,
2013-01-15 12:30:00,53.5,53.5,30.34,SE,132,2.0,2.0,100,0.00,,,0.01,Wunderground v.1.12,2013-01-15 20:30:00,
2013-01-15 12:40:00,53.9,53.9,30.32,NNE,33,1.0,5.0,100,0.00,,,0.01,Wunderground v.1.12,2013-01-15 20:40:00,
2013-01-15 12:50:00,53.5,53.5,30.32,NNE,33,2.0,9.0,100,0.00,,,0.01,Wunderground v.1.12,2013-01-15 20:50:00,
2013-01-15 13:00:00,52.3,52.3,30.32,NE,55,5.0,5.0,100,0.00,,,0.01,Wunderground v.1.12,2013-01-15 21:00:00,
2013-01-15 13:10:00,52.2,52.2,30.32,NE,39,4.0,4.0,100,0.00,,,0.01,Wunderground v.1.12,2013-01-15 21:10:00,
2013-01-15 13:20:00,52.6,52.6,30.32,ESE,115,3.0,4.0,100,0.00,,,0.01,Wunderground v.1.12,2013-01-15 21:20:00,
2013-01-15 13:30:00,52.9,52.9,30.32,ESE,120,2.0,2.0,100,0.00,,,0.01,Wunderground v.1.12,2013-01-15 21:30:00,
2013-01-15 13:40:00,52.3,52.3,30.31,SE,128,3.0,5.0,100,0.00,,,0.01,Wunderground v.1.12,2013-01-15 21:40:00,
2013-01-15 13:50:00,52.6,52.6,30.31,ESE,117,2.0,2.0,100,0.00,,,0.01,Wunderground v.1.12,2013-01-15 21:50:00,
2013-01-15 14:00:00,52.8,52.8,30.31,ENE,66,3.0,3.0,100,0.00,,,0.01,Wunderground v.1.12,2013-01-15 22:00:00,
2013-01-15 14:10:00,53.6,53.6,30.31,NE,34,1.0,6.0,100,0.00,,,0.01,Wunderground v.1.12,2013-01-15 22:10:00,
2013-01-15 14:20:00,53.5,53.5,30.31,NNE,12,2.0,2.0,100,0.00,,,0.01,Wunderground v.1.12,2013-01-15 22:20:00,
2013-01-15 14:30:00,53.8,53.8,30.31,NNE,13,0.0,1.0,100,0.00,,,0.01,Wunderground v.1.12,2013-01-15 22:30:00,
2013-01-15 14:40:00,53.5,53.5,30.31,NE,37,2.0,3.0,100,0.00,,,0.01,Wunderground v.1.12,2013-01-15 22:40:00,
2013-01-15 14:50:00,53.3,53.3,30.31,North,360,2.0,5.0,100,0.00,,,0.01,Wunderground v.1.12,2013-01-15 22:50:00,
2013-01-15 15:00:00,53.5,53.5,30.31,ESE,122,1.0,4.0,100,0.00,,,0.01,Wunderground v.1.12,2013-01-15 23:00:00,
2013-01-15 15:10:00,53.2,53.2,30.31,ESE,107,1.0,1.0,100,0.00,,,0.01,Wunderground v.1.12,2013-01-15 23:10:00,
2013-01-15 15:20:00,53.2,53.2,30.31,North,351,1.0,4.0,100,0.00,,,0.01,Wunderground v.1.12,2013-01-15 23:20:00,
2013-01-15 15:30:00,52.5,52.5,30.31,NE,42,2.0,2.0,100,0.00,,,0.01,Wunderground v.1.12,2013-01-15 23:30:00,
2013-01-15 15:40:00,52.3,52.3,30.31,SSW,192,1.0,1.0,100,0.00,,,0.01,Wunderground v.1.12,2013-01-15 23:40:00,
2013-01-15 15:50:00,52.2,52.2,30.31,East,98,0.0,0.0,100,0.00,,,0.01,Wunderground v.1.12,2013-01-15 23:50:00,
2013-01-15 16:00:00,51.6,51.6,30.31,ESE,121,0.0,0.0,100,0.00,,,0.01,Wunderground v.1.12,2013-01-16 00:00:00,
2013-01-15 16:10:00,50.8,50.8,30.31,ESE,123,0.0,0.0,100,0.00,,,0.01,Wunderground v.1.12,2013-01-16 00:10:00,
2013-01-15 16:20:00,50.2,50.2,30.31,ESE,123,0.0,0.0,100,0.00,,,0.01,Wunderground v.1.12,2013-01-16 00:20:00,
2013-01-15 16:30:00,49.1,49.1,30.31,ESE,120,0.0,0.0,100,0.00,,,0.01,Wunderground v.1.12,2013-01-16 00:30:00,
2013-01-15 16:40:00,48.3,48.3,30.32,ESE,114,0.0,0.0,100,0.00,,,0.01,Wunderground v.1.12,2013-01-16 00:40:00,
2013-01-15 16:50:00,47.3,47.3,30.32,SE,139,2.0,2.0,100,0.00,,,0.01,Wunderground v.1.12,2013-01-16 00:50:00,
2013-01-15 17:00:00,46.2,46.2,30.32,SE,139,0.0,0.0,100,0.00,,,0.01,Wunderground v.1.12,2013-01-16 01:00:00,
2013-01-15 17:10:00,45.2,45.2,30.32,SE,140,0.0,0.0,100,0.00,,,0.01,Wunderground v.1.12,2013-01-16 01:10:00,
2013-01-15 17:20:00,43.6,43.6,30.32,SE,139,1.0,1.0,100,0.00,,,0.01,Wunderground v.1.12,2013-01-16 01:20:00,
2013-01-15 17:30:00,42.9,42.9,30.32,SE,139,2.0,2.0,100,0.00,,,0.01,Wunderground v.1.12,2013-01-16 01:30:00,
2013-01-15 17:40:00,41.9,41.9,30.32,SE,139,0.0,0.0,100,0.00,,,0.01,Wunderground v.1.12,2013-01-16 01:40:00,
2013-01-15 17:50:00,40.8,40.8,30.32,SE,139,0.0,0.0,100,0.00,,,0.01,Wunderground v.1.12,2013-01-16 01:50:00,
2013-01-15 18:00:00,39.6,39.6,30.32,SE,139,0.0,0.0,100,0.00,,,0.01,Wunderground v.1.12,2013-01-16 02:00:00,
2013-01-15 18:10:00,38.5,38.5,30.33,SE,140,0.0,0.0,100,0.00,,,0.01,Wunderground v.1.12,2013-01-16 02:10:00,
2013-01-15 18:20:00,37.8,37.8,30.33,SE,139,0.0,0.0,100,0.00,,,0.01,Wunderground v.1.12,2013-01-16 02:20:00,
2013-01-15 18:30:00,37.0,37.0,30.33,SE,139,0.0,0.0,100,0.00,,,0.01,Wunderground v.1.12,2013-01-16 02:30:00,
2013-01-15 18:40:00,36.2,36.2,30.33,East,87,0.0,0.0,100,0.00,,,0.01,Wunderground v.1.12,2013-01-16 02:40:00,
2013-01-15 18:50:00,35.5,35.5,30.32,NE,53,2.0,2.0,100,0.00,,,0.01,Wunderground v.1.12,2013-01-16 02:50:00,
2013-01-15 19:00:00,34.7,34.7,30.32,NE,53,0.0,0.0,100,0.00,,,0.01,Wunderground v.1.12,2013-01-16 03:00:00,
2013-01-15 19:10:00,34.9,34.9,30.33,NE,53,0.0,0.0,100,0.00,,,0.01,Wunderground v.1.12,2013-01-16 03:10:00,
2013-01-15 19:20:00,35.3,35.3,30.32,NE,53,0.0,0.0,100,0.00,,,0.01,Wunderground v.1.12,2013-01-16 03:20:00,
2013-01-15 19:30:00,35.0,35.0,30.32,NE,53,0.0,0.0,100,0.00,,,0.01,Wunderground v.1.12,2013-01-16 03:30:00,
2013-01-15 19:40:00,33.7,33.7,30.32,NE,54,0.0,0.0,100,0.00,,,0.01,Wunderground v.1.12,2013-01-16 03:40:00,
2013-01-15 19:50:00,33.1,33.1,30.32,NE,54,0.0,0.0,100,0.00,,,0.01,Wunderground v.1.12,2013-01-16 03:50:00,
2013-01-15 20:00:00,32.9,32.9,30.32,NE,54,0.0,0.0,100,0.00,,,0.01,Wunderground v.1.12,2013-01-16 04:00:00,
2013-01-15 20:10:00,33.1,33.1,30.32,NE,53,0.0,0.0,100,0.00,,,0.01,Wunderground v.1.12,2013-01-16 04:10:00,
2013-01-15 20:20:00,33.1,33.1,30.32,NE,53,0.0,0.0,100,0.00,,,0.01,Wunderground v.1.12,2013-01-16 04:20:00,
2013-01-15 20:30:00,33.2,33.2,30.32,NE,53,0.0,2.0,100,0.00,,,0.01,Wunderground v.1.12,2013-01-16 04:30:00,
2013-01-15 20:40:00,32.4,32.4,30.31,NE,53,1.0,3.0,100,0.00,,,0.01,Wunderground v.1.12,2013-01-16 04:40:00,
2013-01-15 20:50:00,31.9,31.9,30.31,NE,53,0.0,0.0,100,0.00,,,0.01,Wunderground v.1.12,2013-01-16 04:50:00,
2013-01-15 21:00:00,31.5,31.5,30.31,NE,53,0.0,0.0,100,0.00,,,0.01,Wunderground v.1.12,2013-01-16 05:00:00,
2013-01-15 21:03:00,31.5,31.5,30.31,North,-999,0.0,0.0,100,0.00,,,-99.99,WeatherLink 5.8.2,2013-01-16 05:03:00,
2013-01-15 21:10:00,31.2,31.2,30.31,NE,53,0.0,0.0,100,0.00,,,0.01,Wunderground v.1.12,2013-01-16 05:10:00,
2013-01-15 21:20:00,31.0,31.0,30.31,NE,53,0.0,0.0,100,0.00,,,0.01,Wunderground v.1.12,2013-01-16 05:20:00,
2013-01-15 21:30:00,30.4,30.4,30.31,NE,53,0.0,0.0,100,0.00,,,0.01,Wunderground v.1.12,2013-01-16 05:30:00,
2013-01-15 21:40:00,30.7,30.7,30.31,NE,53,0.0,0.0,100,0.00,,,0.01,Wunderground v.1.12,2013-01-16 05:40:00,
2013-01-15 21:50:00,30.6,30.6,30.31,NE,53,0.0,0.0,100,0.00,,,0.01,Wunderground v.1.12,2013-01-16 05:50:00,
2013-01-15 22:00:00,30.0,30.0,30.31,NE,53,0.0,0.0,100,0.00,,,0.01,Wunderground v.1.12,2013-01-16 06:00:00,
2013-01-15 22:10:00,29.8,29.8,30.31,NE,53,0.0,0.0,100,0.00,,,0.01,Wunderground v.1.12,2013-01-16 06:10:00,
2013-01-15 22:20:00,29.7,29.7,30.31,NE,53,0.0,0.0,100,0.00,,,0.01,Wunderground v.1.12,2013-01-16 06:20:00,
2013-01-15 22:30:00,29.4,29.4,30.31,NE,53,0.0,0.0,100,0.00,,,0.01,Wunderground v.1.12,2013-01-16 06:30:00,
2013-01-15 22:40:00,29.3,29.3,30.31,NE,53,0.0,0.0,100,0.00,,,0.01,Wunderground v.1.12,2013-01-16 06:40:00,
2013-01-15 22:50:00,29.1,29.1,30.31,NE,53,0.0,0.0,100,0.00,,,0.01,Wunderground v.1.12,2013-01-16 06:50:00,
2013-01-15 23:00:00,29.3,29.3,30.31,ENE,60,0.0,0.0,100,0.00,,,0.01,Wunderground v.1.12,2013-01-16 07:00:00,
2013-01-15 23:10:00,29.4,29.4,30.32,NE,52,2.0,2.0,100,0.00,,,0.01,Wunderground v.1.12,2013-01-16 07:10:00,
2013-01-15 23:20:00,29.3,29.3,30.32,NE,52,0.0,1.0,100,0.00,,,0.01,Wunderground v.1.12,2013-01-16 07:20:00,
2013-01-15 23:30:00,29.3,29.3,30.32,NE,52,0.0,0.0,100,0.00,,,0.01,Wunderground v.1.12,2013-01-16 07:30:00,
2013-01-15 23:40:00,29.0,29.0,30.32,NE,52,0.0,0.0,100,0.00,,,0.01,Wunderground v.1.12,2013-01-16 07:40:00,
2013-01-15 23:50:00,28.7,28.7,30.32,NE,52,0.0,0.0,100,0.00,,,0.01,Wunderground v.1.12,2013-01-16 07:50:00,